Tracking 19846 objects as of 18-Sep-2019
HD Live streaming from Space Station
objects crossing your sky now

PEASSS

Track PEASSS now!
10-day predictions


NORAD ID: 42015
Int'l Code: 2017-008BV
Perigee: 493.9 km
Apogee: 501.9 km
Inclination: 97.4 °
Period: 94.4 minutes
Semi major axis: 6868 km
RCS: Unknown
Launch date: February 15, 2017
Source: Netherlands (NETH)
Launch site: SRIHARIKOTA (SRI)
aabbcc
Your satellite tracking list
Your tracking list is empty




NASA's NSSDC Master Catalog

Two Line Element Set (TLE):
1 42015U 17008BV  19260.72487990 +.00000853 +00000-0 +37047-4 0  9993
2 42015 097.3942 326.1937 0005829 194.4807 165.6265 15.25002960143623
Source of the keplerian elements: AFSPC